Hourly Data Report for August 24, 2017

All times are specified in Local Standard Time (LST). Add 1 hour to adjust for Daylight Saving Time where and when it is observed.

ST. STEPHEN
NEW BRUNSWICK

45°12'36.600" N
67°15'10.300" W
26.10 m
8104935
71607
WSS

Download Data

Hourly Data (August 2017)
Hourly Data Report for August 24, 2017
Temp Definition
°C
Dew Point Temp Definition
°C
Rel Hum Definition
%
Wind Dir Definition
10's deg

Wind Spd Definition
km/h
Visibility Definition
km
Stn Press Definition
kPa
Hmdx Definition


Wind Chill Definition


Weather Definition


TIME
00:00 12.4 10.7 89   0   100.54     LegendNANA
01:00 11.3 9.9 92 0 1   100.56     LegendNANA
02:00 10.3 9.3 93   0   100.57     LegendNANA
03:00 9.4 8.6 95 0 1   100.59     LegendNANA
04:00 8.7 8.0 95   0   100.60     LegendNANA
05:00 8.2 7.5 96   0   100.66     LegendNANA
06:00 7.9 7.3 96   0   100.70     LegendNANA
07:00 10.7 10.1 96   0   100.70     LegendNANA
08:00 16.1 12.2 78 25 2   100.73     LegendNANA
09:00 19.7 12.4 63 26 8   100.74     LegendNANA
10:00 22.2 12.9 56 25 6   100.74 25   LegendNANA
11:00 22.4 12.3 53 24 12   100.72 25   LegendNANA
12:00 23.5 11.9 48 24 16   100.70 26   LegendNANA
13:00 23.6 10.4 43 24 16   100.69 25   LegendNANA
14:00 24.4 8.7 37 27 10   100.66 25   LegendNANA
15:00 25.1 8.2 34 25 10   100.64 26   LegendNANA
16:00 25.8 7.2 31 25 13   100.64 26   LegendNANA
17:00 25.8 8.1 32 27 8   100.67 26   LegendNANA
18:00 24.9 8.8 36 26 14   100.71 26   LegendNANA
19:00 23.0 10.0 44 29 4   100.78     LegendNANA
20:00 19.2 11.1 59 31 5   100.83     LegendNANA
21:00 16.9 11.1 69 32 4   100.91     LegendNANA
22:00 17.5 11.1 66 29 5   100.98     LegendNANA
23:00 15.8 10.0 68 32 6   101.03     LegendNANA

Notes on Data Quality.

Legend

  • E = Estimated
  • M = Missing
  • NA = Not Available
  • ‡ = Partner data that is not subject to review by the National Climate Archives
Date modified: